Location: Unspecified
(41.4057°N, 2.1753°E)
Time: 18:28:41
(UTC+01:00)

ISS - Visible Passes

Search period start: 24 January 2017 00:00
Search period end: 03 February 2017 00:00
Orbit: 399 x 409 km, 51.6° (Epoch: 25 January)

Date Brightness Start Highest point End Pass type
(mag) Time Alt. Az. Time Alt. Az. Time Alt. Az.
26 Jan -0.9 19:31:43 10° SSE 19:32:22 12° SSE 19:32:22 12° SSE visible
27 Jan -1.0 20:14:12 10° SW 20:15:26 21° SW 20:15:26 21° SW visible
28 Jan -2.5 19:22:14 10° SSW 19:25:14 34° SE 19:25:42 32° ESE visible
29 Jan -1.5 18:30:47 10° S 18:33:06 18° SE 18:35:25 10° E visible
29 Jan -2.1 20:06:06 10° WSW 20:08:33 41° WNW 20:08:33 41° WNW visible
30 Jan -3.4 19:13:42 10° SW 19:16:58 85° SE 19:18:38 27° ENE visible
30 Jan 0.3 20:51:15 10° WNW 20:51:18 10° WNW 20:51:18 10° WNW visible
31 Jan -1.7 19:58:23 10° W 20:01:16 28° NNW 20:01:18 28° NNW visible
01 Feb -2.4 19:05:39 10° WSW 19:08:48 43° NNW 19:11:14 15° NE visible
01 Feb 0.1 20:43:51 10° NW 20:43:53 10° NW 20:43:53 10° NW visible
02 Feb -1.2 19:50:53 10° WNW 19:53:18 19° NNW 19:53:45 18° N visible
